This demonstration page uses our WeatherBlox Daily Observations layout. Learn more.

Left ArrowRight Arrow

34.16533, -84.80231

Hourly Observations for June 27, 2019

Temp ( °F °C ) Dew Point ( °F °C ) Humidity (%) Winds ( mph kmh ) Pressure ( in mb ) Visibility ( mi km ) Precip ( " mm )
12:53 am 00:53 Clear 71 21.7 68 20 90 90 Calm 30.18 1022 10 16 0.00 0.00
1:53 am 01:53 Clear 70 21.1 68 20 93 93 Calm 30.16 1022 10 16 0.00 0.00
2:53 am 02:53 Clear 69 20.6 68 20 96 96 Calm 30.16 1021 10 16 0.00 0.00
3:53 am 03:53 Clear 68 20 67 19.4 96 96 Calm 30.14 1021 10 16 0.00 0.00
4:53 am 04:53 Clear 68 20 67 19.4 96 96 Calm 30.14 1021 10 16 0.00 0.00
5:53 am 05:53 Clear 67 19.4 66 18.9 97 97 Calm 30.15 1021 10 16 0.00 0.00
6:53 am 06:53 Sunny 68 20 66 18.9 93 93 Calm 30.17 1022 10 16 0.00 0.00
7:53 am 07:53 Sunny 69 20.6 67 19.4 93 93 Calm 30.18 1022 10 16 0.00 0.00
8:32 am 08:32 Mostly Sunny 72 22.2 68 20 87 87 Calm 30.19 1022 10 16 0.00 0.00
8:53 am 08:53 Sunny 73 22.8 68 20 84 84 Calm 30.17 1022 10 16 0.00 0.00
9:53 am 09:53 Sunny 75 23.9 69 20.6 82 82 Calm 30.19 1022 10 16 0.00 0.00
10:53 am 10:53 Sunny 79 26.1 70 21.1 74 74 Calm 30.18 1022 10 16 0.00 0.00
11:53 am 11:53 Sunny 85 29.4 71 21.7 63 63 VRB 3 6 30.18 1022 10 16 0.00 0.00
12:53 pm 12:53 Sunny 84 28.9 71 21.7 65 65 NNE 6 9 30.17 1022 10 16 0.00 0.00
1:53 pm 13:53 Sunny 87 30.6 71 21.7 59 59 Calm 30.16 1021 10 16 0.00 0.00
2:53 pm 14:53 Sunny 90 32.2 63 17.2 41 41 VRB 3 6 30.14 1021 10 16 0.00 0.00
7:53 pm 19:53 Sunny 83 28.3 68 20 61 61 S 6 9 30.13 1020 10 16 0.00 0.00
8:53 pm 20:53 Partly Cloudy 80 26.7 66 18.9 62 62 SSW 3 6 30.13 1020 10 16 0.00 0.00
9:53 pm 21:53 Clear 77 25 68 20 74 74 Calm 30.14 1021 10 16 0.00 0.00
10:53 pm 22:53 Clear 72 22.2 68 20 87 87 Calm 30.16 1021 10 16 0.00 0.00
11:53 pm 23:53 Clear 70 21.1 67 19.4 90 90 Calm 30.16 1021 10 16 0.00 0.00

Powered by AerisWeather